Regional Weather Roundup
Issued by NWS

Home | Current Version | Previous Version | Text Only | Print | Product List | Glossary Off
Versions: 1 2 3 4 5 6 7 8 9 10 11 12 13 14 15 16 17 18 19 20 21 22 23 24 25 26 27 28 29 30 31 32 33 34 35 36 37 38 39 40 41 42 43 44 45 46 47 48 49 50

368
ASUS43 KLSX 260157
RWRMO

WEATHER SUMMARY FOR MISSOURI
NATIONAL WEATHER SERVICE SPRINGFIELD MO
900 PM CDT TUE JUL 25 2017

NOTE: "FAIR" INDICATES FEW OR NO CLOUDS BELOW 12,000 FEET WITH NO
       SIGNIFICANT WEATHER AND/OR OBSTRUCTIONS TO VISIBILITY.
       CURRENT SKY AND/OR WEATHER CONDITIONS ARE NOT AVAILABLE FOR
       CHILLICOTHE AND FARMINGTON.

MOZ001>031-035>038-043-044-053-054-260300-
...NORTHERN AND WESTERN MISSOURI...

CITY           SKY/WX    TMP DP  RH WIND       PRES   REMARKS
KANSAS CTY INT CLEAR     86  73  65 SE7       30.02R HX  93
LEE`S SUMMIT   PTCLDY    84  78  82 E6        30.03R HX  95
ST JOSEPH      PTCLDY    86  79  79 SE10      29.99R HX  99
CHILLICOTHE      N/A     83  76  79 SE3       30.04S HX  91

$$
MOZ066>068-077>081-088>096-101>105-260300-
...SOUTHWEST MISSOURI...

CITY           SKY/WX    TMP DP  RH WIND       PRES   REMARKS
SPRINGFIELD    PTCLDY    85  68  56 CALM      30.04S
JOPLIN         CLEAR     87  71  58 SW7       30.02S HX  93
BRANSON        MOCLDY    84  72  65 CALM      30.07S

$$
MOZ032>034-039>042-045>050-055>058-069>072-260300-
...CENTRAL MISSOURI...

CITY           SKY/WX    TMP DP  RH WIND       PRES   REMARKS
COLUMBIA       NOT AVBL
JEFFERSON CITY CLEAR     85  71  63 VRB5      30.04R HX  90
ROLLA          CLEAR     80  67  64 NE7       30.07R
SEDALIA        CLEAR     83  77  82 E7        30.06R HX  92
WARRENSBURG    CLEAR     82  72  69 E5        30.03R

$$
MOZ051-052-059>065-260300-
...EAST CENTRAL MISSOURI...

CITY           SKY/WX    TMP DP  RH WIND       PRES   REMARKS
ST LOUIS INTL  PTCLDY    86  71  60 E9        30.06R HX  91

$$
MOZ072>076-082>087-097>100-106>115-260300-
...SOUTH CENTRAL AND SOUTHEAST MISSOURI...

CITY           SKY/WX    TMP DP  RH WIND       PRES   REMARKS
CAPE GIRARDEAU PTCLDY    79  75  87 SE6       30.05R
POPLAR BLUFF   PTCLDY    84  76  76 CALM      30.03S HX  93
WEST PLAINS    CLEAR     83  71  67 SE3       30.07S

$$



USA.gov is the U.S. government's official web portal to all federal, state and local government web resources and services.